Flag for Poland Weather past 2 weeks in Radom, Poland

Now
33 °F

Clear.


Feels Like: 33 °F
Forecast: 31 / 40 °F
Wind: 2 mph from West

Location: Kielce

Current Time: Mar 4, 2015 at 8:45:29 PM

Latest Report: Mar 4, 2015 at 8:00 PM


Visibility: 13 mi

Pressure: 30.24 "Hg

Humidity: 78%

Dew point: 26 °F

Location of RadomLocation

Historic Weather in Radom — Graph

°F

Radom temperature yesterday

Maximum temperature yesterday: 38 °F (at 3:00 PM)
Minimum temperature yesterday: 27 °F (at 11:00 PM)
Average temperature yesterday: 33 °F

Past Weeks' High & Low Weather Summary

 TemperatureHumidityPressure
High53 °F (Feb 22, 2:00 PM)100% (Feb 27, 1:00 AM)30.76 "Hg (Feb 27, 1:00 AM)
Low13 °F (Feb 18, 6:00 AM)45% (Feb 17, 7:00 PM)29.53 "Hg (Mar 2, 2:00 PM)
Average37 °F84%30.02 "Hg
* Reported Feb 17 7:00 PM — Mar 4 7:00 PM, Radom, Weather by CustomWeather, © 2015

Note: Actual official high and low records may vary slightly from our data, if they occured in-between our weather recording intervals... More about our weather records

Advertising

Radom weather history for previous 24 hours

 ConditionsComfort  
Time TempWeatherWind HumidityBarometerVisibility
7:00 PM
Wed, Mar 4
35 °FPassing clouds.6 mph75%30.23 "Hg7 mi
6:00 PM33 °FPassing clouds.3 mph80%30.22 "Hg7 mi
5:00 PM37 °FPassing clouds.6 mph72%30.19 "Hg11 mi
4:00 PM39 °FOvercast.5 mph59%30.16 "Hg22 mi
3:00 PM39 °FSnow flurries. Scattered clouds.8 mph60%30.14 "Hg18 mi
2:00 PM41 °FPartly sunny.7 mph56%30.12 "Hg19 mi
1:00 PM40 °FOvercast.7 mph60%30.11 "Hg19 mi
12:00 PM38 °FOvercast.7 mph72%30.09 "Hg22 mi
11:00 AM35 °FLow clouds.3 mph96%30.09 "Hg6 mi
10:00 AM34 °FLight rain. Low clouds.5 mph97%30.08 "Hg3 mi
9:00 AM33 °FLight snow. Low clouds.5 mph97%30.06 "Hg2 mi
8:00 AM33 °FSnow showers. Overcast.5 mph95%30.05 "Hg1 mi
7:00 AM32 °FFog.3 mph86%30.03 "Hg6 mi
6:00 AM29 °FOvercast.No wind93%30.04 "Hg4 mi
5:00 AM29 °FFog.2 mph96%30.06 "Hg4 mi
3:00 AM28 °FFog.1 mph95%30.10 "Hg3 mi
2:00 AM27 °FFog.1 mph97%30.12 "Hg4 mi
1:00 AM26 °FFog.1 mph97%30.14 "Hg2 mi
12:00 AM26 °FFog.1 mph96%30.16 "Hg2 mi
11:00 PM
Tue, Mar 3
27 °FFog.1 mph96%30.16 "Hg2 mi
10:00 PM28 °FFog.2 mph95%30.16 "Hg2 mi
9:00 PM29 °FFog.2 mph95%30.16 "Hg2 mi
Weather by CustomWeather, © 2015

See weather overviewHow to use our weather pages